Location: Buckhorn Peak
(37.6641°N, 120.1241°W)
Time: 08:10:45
(UTC+00:00)

Envisat - Pass Details

Date: 13 October 2024
Orbit: 762 x 763 km, 98.3° (Epoch: 03 November)

Event Time Altitude Azimuth Distance (km) Brightness Sun altitude
Rises 11:29:37 0° 7° (N) 3,232 6.5 -31.8°
Reaches altitude 10° 11:31:58 10° 3° (N) 2,302 5.6 -31.3°
Enters shadow 11:33:05 17° 359° (N) 1,877 5.1 -31.1°
